This is the latest recevied weather packets stored in our database for station/object K7FLA. If no packets are shown the sender has not sent any weather packets the latest 10 day(s).
| Time | Temp. | Humidity | Pressure | Rain* | Wind** | Luminosity | Snow |
|---|---|---|---|---|---|---|---|
| 1788575173 | 22.78° C | 26% | 1094.5 hPa | 0 mm | - | 0 W/m² | - |
| 1788574868 | 22.78° C | 27% | 1094.2 hPa | 0 mm | - | 1 W/m² | - |
| 1788574568 | 23.33° C | 29% | 1094.1 hPa | 0 mm | - | 2 W/m² | - |
| 1788574302 | 23.33° C | 26% | 1094.3 hPa | 0 mm | - | 4 W/m² | - |
| 1788573962 | 23.89° C | 26% | 1094.2 hPa | 0 mm | - | 7 W/m² | - |
| 1788573658 | 23.89° C | 26% | 1094.1 hPa | 0 mm | - | 11 W/m² | - |
| 1788573356 | 23.89° C | 26% | 1094.2 hPa | 0 mm | - | 15 W/m² | - |
| 1788573051 | 23.89° C | 26% | 1094.2 hPa | 0 mm | - | 19 W/m² | - |
| 1788572745 | 24.44° C | 26% | 1094.3 hPa | 0 mm | - | 23 W/m² | - |
| 1788572457 | 24.44° C | 26% | 1094.1 hPa | 0 mm | - | 25 W/m² | - |
| 1788572137 | 25° C | 26% | 1094.2 hPa | 0 mm | - | 28 W/m² | - |
| 1788571833 | 25° C | 25% | 1094.1 hPa | 0 mm | - | 31 W/m² | - |
| 1788571527 | 25.56° C | 24% | 1094.1 hPa | 0 mm | - | 36 W/m² | - |
| 1788571224 | 25.56° C | 24% | 1094.3 hPa | 0 mm | - | 39 W/m² | - |
| 1788570920 | 25.56° C | 24% | 1094.2 hPa | 0 mm | - | 50 W/m² | - |
| 1788570635 | 26.11° C | 23% | 1094.1 hPa | 0 mm | - | 60 W/m² | - |
| 1788570315 | 26.11° C | 24% | 1094.2 hPa | 0 mm | - | 71 W/m² | - |
| 1788570012 | 26.11° C | 24% | 1094.3 hPa | 0 mm | - | 81 W/m² | - |
| 1788569707 | 26.67° C | 24% | 1094 hPa | 0 mm | - | 89 W/m² | - |
| 1788569402 | 26.67° C | 23% | 1094.2 hPa | 0 mm | - | 101 W/m² | - |
| 1788569097 | 27.22° C | 23% | 1094 hPa | 0 mm | - | 106 W/m² | - |
| 1788568792 | 27.22° C | 23% | 1094.1 hPa | 0 mm | - | 113 W/m² | - |
| 1788568488 | 27.78° C | 23% | 1094 hPa | 0 mm | - | 84 W/m² | - |
| 1788568183 | 27.78° C | 23% | 1093.8 hPa | 0 mm | - | 139 W/m² | - |
| 1788567884 | 27.78° C | 23% | 1094 hPa | 0 mm | - | 126 W/m² | - |
* Rain latest hour (hover to see other rain measurements)
** Current wind speed in m/s (hover to see current wind gust speed)